Location: Ch�teau-Arnoux
(44.0814°N, 6.0027°E)
Time: 07:27:28
(UTC+00:00)

Cosmos 2016 Rocket - Pass Details

Date: 15 November 2019
Orbit: 947 x 1000 km, 83.0° (Epoch: 14 December)

Event Time Altitude Azimuth Distance (km) Brightness Sun altitude
Rises 05:14:44 0° 187° (S) 3,644 7.1 -13.7°
Reaches altitude 10° 05:17:13 10° 188° (S) 2,709 6.4 -13.3°
Maximum altitude 05:23:27 86° 278° (W) 991 4.0 -12.2°
Drops below altitude 10° 05:29:48 10° 7° (N) 2,763 6.3 -11.1°
Sets 05:32:21 0° 8° (N) 3,721 7.0 -10.6°
